STARLINK-35570, 66090

Orbit data source: Space-Track

STARLINK-35570, 66090 is a payload satellite owned by SpaceX/Seattle (US) in LEO that was launched on Sun, 19 Oct 2025 UTC via an FALCON 9 launch vehicle from the Air Force Western Test Range (AFWTR). Payload-class satellites include a variety of spacecraft equipped with specific instruments for various scientific and technological missions. These include communications satellites like Starlink; space stations such as the ISS; scientific satellites like the Hubble; Earth observation satellites from companies like Planet Labs, Umbra, and HawkEye 360; GPS; miniature CubeSats for education and research; and military/defense satellites.

Loading next visibility...
Identifier
66090, 2025-236E
Orbit
LEO
Country
Flag of USUS
Related business
Manufacturer
SpaceX/Seattle
Mission
Operational Commercial Communications
Bus & Motor
STARLINK V2MO, Unknown motor
Mass
575 kg wet, ~530 kg dry
Launch date (UTC)
2025-10-19 (6 months ago)
Launch vehicle
FALCON 9
Launch site
Air Force Western Test Range (AFWTR)
Object type
Payload
Rocket body
Debris
Shape & HBR
Box + 2 Pan, 17.7 m
Radar Cross Section
36.964 m²

Expand to show TLE details & history
Last TLE update: 13 hours ago

TLE from 13 hours ago
0 STARLINK-35570
1 66090U 25236E   26095.11011794  .00036466  00000-0  12391-2 0  9998
2 66090  53.1586 340.8720 0001071 110.0781 250.0335 15.30154006 26991
Epoch: 2026-04-05T02:38Z
TLE epoch observation values (Epoch: 2026-04-05T02:38:34.190Z)
Latitude
-0°
Longitude
107.80929°
Altitude
476.503 km
Speed
7.629 km/s
True Right ascension
22h 43m 29s
True Declination
0° 00' 00"
Sunlit
Object was in daylight at epoch
Visualization orbit readout
Latitude
Unknown
Longitude
Unknown
Altitude
Unknown
Speed
Unknown
Apparent Right ascension
Unknown
Apparent Declination
Unknown
Sunlit
N/A
Visualization observer readout
Local Sidereal Time
21:53:44
Azimuth
Unknown
Elevation
Unknown
Doppler factor
Unknown
Orbital elements
Apogee altitude
476.343 km
Perigee altitude
474.875 km
Semi-major axis
6,853.746 km
Eccentricity
0.00011
Inclination
53.1586°
RAAN
340.872°
Arg. of periapsis
110.0781°
True anomaly
250.02197°
Mean anomaly
250.0335°
Eccentric anomaly
250.02773°
Mean motion
3.82517 °/min
Orbital period
94.11 mins
BSTAR
0.0012391
Loading maneuver chart data...
Computing Atmospheric mass density...
Loading historical data...
Loading historical data...
Loading historical data...
Loading historical data...
Loading historical data...
Loading historical data...
Loading historical data...

Documentation

Showing up to 5 results
|